| time (UTC) | temp C | wind direction | speed KPH | gust KPH | rain 1hr cm | rain 24hr cm | rain mn cm | humidity % | barometer mb |
| 20260906225421 | 32 | 221 | 3.2 | 6.4 | 0.00 | 0.00 | 0.00 | 37 | 1016.5 |
| 20260906224917 | 31 | 352 | 3.2 | 11.3 | 0.00 | 0.00 | 0.00 | 38 | 1016.4 |
| 20260906224413 | 31 | 114 | 3.2 | 9.7 | 0.00 | 0.00 | 0.00 | 37 | 1016.4 |
| 20260906223909 | 31 | 335 | 6.4 | 9.7 | 0.00 | 0.00 | 0.00 | 37 | 1016.7 |
| 20260906223405 | 31 | 326 | 6.4 | 16.1 | 0.00 | 0.00 | 0.00 | 37 | 1016.4 |
| 20260906222903 | 32 | 337 | 0.0 | 14.5 | 0.00 | 0.00 | 0.00 | 35 | 1016.5 |
| 20260906222403 | 32 | 349 | 6.4 | 11.3 | 0.00 | 0.00 | 0.00 | 35 | 1016.7 |
| 20260906221900 | 32 | 48 | 3.2 | 12.9 | 0.00 | 0.00 | 0.00 | 35 | 1016.9 |
| 20260906221359 | 32 | 303 | 3.2 | 8.0 | 0.00 | 0.00 | 0.00 | 34 | 1016.8 |
| 20260906220855 | 31 | 83 | 0.0 | 8.0 | 0.00 | 0.00 | 0.00 | 35 | 1016.9 |
| 20260906220350 | 31 | 59 | 3.2 | 8.0 | 0.00 | 0.00 | 0.00 | 35 | 1016.9 |
| 20260906215849 | 31 | 73 | 8.0 | 12.9 | 0.00 | 0.00 | 0.00 | 37 | 1017.0 |
| 20260906215344 | 32 | 23 | 4.8 | 12.9 | 0.00 | 0.00 | 0.00 | 36 | 1017.0 |
| 20260906214842 | 32 | 324 | 4.8 | 9.7 | 0.00 | 0.00 | 0.00 | 35 | 1017.0 |
| 20260906214342 | 32 | 102 | 4.8 | 4.8 | 0.00 | 0.00 | 0.00 | 35 | 1017.2 |
| 20260906213841 | 31 | 328 | 8.0 | 8.0 | 0.00 | 0.00 | 0.00 | 36 | 1017.4 |
| 20260906213336 | 31 | 75 | 4.8 | 6.4 | 0.00 | 0.00 | 0.00 | 37 | 1017.2 |
| 20260906212833 | 31 | 26 | 1.6 | 8.0 | 0.00 | 0.00 | 0.00 | 36 | 1017.5 |
| 20260906212329 | 31 | 13 | 4.8 | 9.7 | 0.00 | 0.00 | 0.00 | 37 | 1017.5 |
| 20260906211828 | 31 | 57 | 3.2 | 19.3 | 0.00 | 0.00 | 0.00 | 39 | 1017.7 |
| 20260906211324 | 31 | 3 | 4.8 | 9.7 | 0.00 | 0.00 | 0.00 | 37 | 1017.7 |
| 20260906210819 | 31 | 334 | 6.4 | 9.7 | 0.00 | 0.00 | 0.00 | 37 | 1017.7 |
| 20260906210319 | 31 | 94 | 11.3 | 11.3 | 0.00 | 0.00 | 0.00 | 37 | 1018.0 |
| 20260906205814 | 31 | 111 | 0.0 | 6.4 | 0.00 | 0.00 | 0.00 | 37 | 1018.2 |
| 20260906205310 | 31 | 122 | 6.4 | 9.7 | 0.00 | 0.00 | 0.00 | 37 | 1018.1 |
| 20260906204806 | 30 | 341 | 8.0 | 11.3 | 0.00 | 0.00 | 0.00 | 38 | 1018.3 |
| 20260906204305 | 30 | 349 | 3.2 | 11.3 | 0.00 | 0.00 | 0.00 | 38 | 1018.2 |
| 20260906203804 | 30 | 85 | 0.0 | 6.4 | 0.00 | 0.00 | 0.00 | 37 | 1018.3 |
| 20260906203300 | 30 | 297 | 4.8 | 9.7 | 0.00 | 0.00 | 0.00 | 38 | 1018.2 |
| 20260906202756 | 30 | 74 | 11.3 | 11.3 | 0.00 | 0.00 | 0.00 | 38 | 1018.3 |
| 20260906202256 | 30 | 99 | 0.0 | 6.4 | 0.00 | 0.00 | 0.00 | 37 | 1018.1 |
| 20260906201751 | 30 | 114 | 0.0 | 8.0 | 0.00 | 0.00 | 0.00 | 38 | 1018.5 |
| 20260906201250 | 30 | 94 | 3.2 | 6.4 | 0.00 | 0.00 | 0.00 | 38 | 1018.5 |
| 20260906200746 | 30 | 343 | 6.4 | 9.7 | 0.00 | 0.00 | 0.00 | 37 | 1018.8 |
| 20260906200242 | 30 | 125 | 3.2 | 9.7 | 0.00 | 0.00 | 0.00 | 38 | 1018.3 |
| 20260906195737 | 30 | 50 | 4.8 | 8.0 | 0.00 | 0.00 | 0.00 | 37 | 1018.5 |
| 20260906195233 | 30 | 120 | 6.4 | 11.3 | 0.00 | 0.00 | 0.00 | 37 | 1018.4 |
| 20260906194729 | 31 | 85 | 0.0 | 4.8 | 0.00 | 0.00 | 0.00 | 37 | 1018.7 |
| 20260906194225 | 30 | 105 | 3.2 | 6.4 | 0.00 | 0.00 | 0.00 | 38 | 1018.9 |
| 20260906193720 | 30 | 119 | 0.0 | 9.7 | 0.00 | 0.00 | 0.00 | 39 | 1019.1 |
| 20260906193220 | 29 | 112 | 0.0 | 9.7 | 0.00 | 0.00 | 0.00 | 40 | 1018.8 |
| 20260906192716 | 28 | 4 | 6.4 | 11.3 | 0.00 | 0.00 | 0.00 | 40 | 1019.0 |
| 20260906192210 | 29 | 79 | 4.8 | 11.3 | 0.00 | 0.00 | 0.00 | 39 | 1018.9 |
| 20260906191710 | 30 | 33 | 4.8 | 6.4 | 0.00 | 0.00 | 0.00 | 40 | 1019.3 |
| 20260906191204 | 28 | 345 | 3.2 | 14.5 | 0.00 | 0.00 | 0.00 | 41 | 1019.1 |
| 20260906190658 | 28 | 95 | 6.4 | 11.3 | 0.00 | 0.00 | 0.00 | 41 | 1019.3 |
| 20260906190153 | 28 | 111 | 4.8 | 8.0 | 0.00 | 0.00 | 0.00 | 42 | 1019.3 |
| 20260906185652 | 28 | 117 | 8.0 | 8.0 | 0.00 | 0.00 | 0.00 | 42 | 1019.4 |
| 20260906185151 | 28 | 116 | 6.4 | 8.0 | 0.00 | 0.00 | 0.00 | 42 | 1019.5 |
| 20260906184645 | 29 | 61 | 4.8 | 6.4 | 0.00 | 0.00 | 0.00 | 42 | 1019.6 |
| 20260906184141 | 27 | 283 | 3.2 | 9.7 | 0.00 | 0.00 | 0.00 | 44 | 1019.8 |
| 20260906183637 | 28 | 8 | 1.6 | 8.0 | 0.00 | 0.00 | 0.00 | 43 | 1019.8 |
| 20260906183133 | 28 | 346 | 3.2 | 4.8 | 0.00 | 0.00 | 0.00 | 44 | 1019.7 |
| 20260906182627 | 28 | 123 | 3.2 | 11.3 | 0.00 | 0.00 | 0.00 | 44 | 1019.8 |
| 20260906182123 | 28 | 115 | 3.2 | 4.8 | 0.00 | 0.00 | 0.00 | 43 | 1019.8 |
| 20260906181618 | 27 | 75 | 4.8 | 6.4 | 0.00 | 0.00 | 0.00 | 45 | 1020.3 |
| 20260906181114 | 27 | 109 | 3.2 | 4.8 | 0.00 | 0.00 | 0.00 | 44 | 1020.4 |
| 20260906180609 | 27 | 85 | 3.2 | 6.4 | 0.00 | 0.00 | 0.00 | 45 | 1020.4 |
| 20260906180103 | 27 | 68 | 4.8 | 6.4 | 0.00 | 0.00 | 0.00 | 48 | 1020.1 |
| 20260906175602 | 26 | 111 | 1.6 | 6.4 | 0.00 | 0.00 | 0.00 | 49 | 1020.3 |
| 20260906175056 | 26 | 86 | 4.8 | 9.7 | 0.00 | 0.00 | 0.00 | 48 | 1020.3 |
| 20260906174554 | 26 | 355 | 3.2 | 4.8 | 0.00 | 0.00 | 0.00 | 48 | 1020.8 |
| 20260906174050 | 26 | 90 | 3.2 | 8.0 | 0.00 | 0.00 | 0.00 | 49 | 1020.6 |
| 20260906173544 | 26 | 79 | 4.8 | 8.0 | 0.00 | 0.00 | 0.00 | 48 | 1020.7 |
| 20260906173040 | 25 | 7 | 0.0 | 11.3 | 0.00 | 0.00 | 0.00 | 51 | 1020.7 |
| 20260906172535 | 26 | 350 | 4.8 | 6.4 | 0.00 | 0.00 | 0.00 | 51 | 1021.0 |
| 20260906172030 | 27 | 265 | 3.2 | 4.8 | 0.00 | 0.00 | 0.00 | 49 | 1021.1 |
| 20260906171525 | 25 | 110 | 6.4 | 6.4 | 0.00 | 0.00 | 0.00 | 52 | 1021.1 |
| 20260906171021 | 25 | 24 | 0.0 | 8.0 | 0.00 | 0.00 | 0.00 | 52 | 1021.1 |
| 20260906170516 | 25 | 328 | 3.2 | 4.8 | 0.00 | 0.00 | 0.00 | 53 | 1020.9 |
| 20260906170015 | 25 | 6 | 6.4 | 8.0 | 0.00 | 0.00 | 0.00 | 53 | 1021.1 |
| 20260906165512 | 25 | 60 | 3.2 | 4.8 | 0.00 | 0.00 | 0.00 | 53 | 1021.3 |
| 20260906165007 | 25 | 334 | 3.2 | 8.0 | 0.00 | 0.00 | 0.00 | 55 | 1021.5 |
| 20260906164506 | 25 | 90 | 1.6 | 6.4 | 0.00 | 0.00 | 0.00 | 55 | 1021.5 |
| 20260906164003 | 24 | 337 | 0.0 | 4.8 | 0.00 | 0.00 | 0.00 | 54 | 1021.5 |
| 20260906163458 | 24 | 90 | 0.0 | 6.4 | 0.00 | 0.00 | 0.00 | 55 | 1021.7 |
| 20260906162956 | 24 | 10 | 0.0 | 3.2 | 0.00 | 0.00 | 0.00 | 55 | 1021.6 |
| 20260906162455 | 24 | 126 | 1.6 | 4.8 | 0.00 | 0.00 | 0.00 | 56 | 1021.4 |
| 20260906161950 | 23 | 65 | 3.2 | 3.2 | 0.00 | 0.00 | 0.00 | 60 | 1021.4 |
| 20260906161449 | 23 | 327 | 4.8 | 11.3 | 0.00 | 0.00 | 0.00 | 59 | 1021.4 |
| 20260906160949 | 23 | 112 | 3.2 | 4.8 | 0.00 | 0.00 | 0.00 | 59 | 1021.1 |
| 20260906160442 | 23 | 187 | 0.0 | 3.2 | 0.00 | 0.00 | 0.00 | 58 | 1021.4 |
| 20260906155940 | 23 | 125 | 3.2 | 3.2 | 0.00 | 0.00 | 0.00 | 61 | 1021.3 |
| 20260906155434 | 22 | 352 | 0.0 | 3.2 | 0.00 | 0.00 | 0.00 | 63 | 1021.5 |
| 20260906154930 | 22 | 71 | 3.2 | 4.8 | 0.00 | 0.00 | 0.00 | 64 | 1021.3 |
| 20260906154425 | 22 | 83 | 0.0 | 4.8 | 0.00 | 0.00 | 0.00 | 64 | 1021.4 |
| 20260906153923 | 21 | 90 | 6.4 | 11.3 | 0.00 | 0.00 | 0.00 | 65 | 1021.4 |
| 20260906153422 | 21 | 35 | 4.8 | 9.7 | 0.00 | 0.00 | 0.00 | 64 | 1021.3 |
| 20260906152918 | 22 | 72 | 3.2 | 9.7 | 0.00 | 0.00 | 0.00 | 65 | 1021.3 |
| 20260906152413 | 22 | 147 | 3.2 | 6.4 | 0.00 | 0.00 | 0.00 | 66 | 1021.4 |
| 20260906151912 | 21 | 71 | 3.2 | 4.8 | 0.00 | 0.00 | 0.00 | 67 | 1021.5 |
| 20260906151408 | 21 | 26 | 4.8 | 8.0 | 0.00 | 0.00 | 0.00 | 65 | 1021.6 |
| 20260906150903 | 21 | 81 | 0.0 | 6.4 | 0.00 | 0.00 | 0.00 | 66 | 1021.4 |
| 20260906150358 | 21 | 0 | 3.2 | 6.4 | 0.00 | 0.00 | 0.00 | 66 | 1021.5 |
| 20260906145857 | 21 | 45 | 3.2 | 4.8 | 0.00 | 0.00 | 0.00 | 67 | 1021.6 |
| 20260906145351 | 21 | 212 | 3.2 | 3.2 | 0.00 | 0.00 | 0.00 | 67 | 1021.7 |
| 20260906144845 | 20 | 353 | 0.0 | 3.2 | 0.00 | 0.00 | 0.00 | 68 | 1021.6 |
| 20260906144341 | 20 | 90 | 1.6 | 8.0 | 0.00 | 0.00 | 0.00 | 69 | 1021.6 |
| 20260906143841 | 20 | 39 | 4.8 | 6.4 | 0.00 | 0.00 | 0.00 | 68 | 1021.5 |
| 20260906143337 | 20 | 41 | 6.4 | 6.4 | 0.00 | 0.00 | 0.00 | 67 | 1021.9 |
| 20260906142833 | 20 | 132 | 0.0 | 4.8 | 0.00 | 0.00 | 0.00 | 69 | 1021.9 |
| 20260906142327 | 20 | 0 | 0.0 | 6.4 | 0.00 | 0.00 | 0.00 | 71 | 1021.4 |
| 20260906141827 | 20 | 3 | 3.2 | 6.4 | 0.00 | 0.00 | 0.00 | 71 | 1021.5 |
| 20260906141322 | 20 | 14 | 3.2 | 4.8 | 0.00 | 0.00 | 0.00 | 69 | 1021.6 |
| 20260906140820 | 21 | 18 | 1.6 | 4.8 | 0.00 | 0.00 | 0.00 | 65 | 1021.7 |
| 20260906140315 | 20 | 165 | 1.6 | 6.4 | 0.00 | 0.00 | 0.00 | 66 | 1021.9 |
| 20260906135813 | 20 | 209 | 0.0 | 4.8 | 0.00 | 0.00 | 0.00 | 67 | 1021.9 |
| 20260906135308 | 19 | 270 | 3.2 | 3.2 | 0.00 | 0.00 | 0.00 | 67 | 1021.7 |
| 20260906134803 | 18 | 192 | 3.2 | 4.8 | 0.00 | 0.00 | 0.00 | 68 | 1021.9 |
| 20260906134258 | 18 | 180 | 0.0 | 3.2 | 0.00 | 0.00 | 0.00 | 69 | 1021.9 |
| 20260906133754 | 19 | 195 | 0.0 | 1.6 | 0.00 | 0.00 | 0.00 | 68 | 1021.6 |
| 20260906133249 | 18 | 74 | 0.0 | 1.6 | 0.00 | 0.00 | 0.00 | 70 | 1021.9 |
| 20260906132745 | 18 | 18 | 0.0 | 3.2 | 0.00 | 0.00 | 0.00 | 72 | 1021.4 |
| 20260906132240 | 17 | 356 | 3.2 | 3.2 | 0.00 | 0.00 | 0.00 | 73 | 1021.6 |
| 20260906131736 | 17 | 29 | 0.0 | 3.2 | 0.00 | 0.00 | 0.00 | 76 | 1021.4 |
| 20260906131230 | 16 | 180 | 0.0 | 0.0 | 0.00 | 0.00 | 0.00 | 78 | 1021.7 |
| 20260906130726 | 16 | 120 | 3.2 | 3.2 | 0.00 | 0.00 | 0.00 | 78 | 1021.5 |
| 20260906130221 | 16 | 215 | 0.0 | 3.2 | 0.00 | 0.00 | 0.00 | 78 | 1021.5 |
| 20260906125719 | 16 | 252 | 3.2 | 3.2 | 0.00 | 0.00 | 0.00 | 79 | 1021.1 |
| 20260906125218 | 16 | 203 | 1.6 | 1.6 | 0.00 | 0.00 | 0.00 | 79 | 1021.1 |
| 20260906124713 | 16 | 0 | 0.0 | 0.0 | 0.00 | 0.00 | 0.00 | 80 | 1021.4 |
| 20260906124209 | 15 | 255 | 0.0 | 1.6 | 0.00 | 0.00 | 0.00 | 80 | 1021.5 |
| 20260906123707 | 15 | 251 | 0.0 | 3.2 | 0.00 | 0.00 | 0.00 | 80 | 1021.1 |
| 20260906123203 | 15 | 90 | 0.0 | 1.6 | 0.00 | 0.00 | 0.00 | 80 | 1021.4 |
| 20260906122701 | 16 | 221 | 3.2 | 3.2 | 0.00 | 0.00 | 0.00 | 80 | 1021.0 |
| 20260906122157 | 16 | 184 | 0.0 | 3.2 | 0.00 | 0.00 | 0.00 | 79 | 1021.1 |
| 20260906121654 | 16 | 29 | 0.0 | 0.0 | 0.00 | 0.00 | 0.00 | 79 | 1021.4 |
| 20260906121149 | 16 | 165 | 0.0 | 1.6 | 0.00 | 0.00 | 0.00 | 78 | 1021.4 |
| 20260906120645 | 16 | 180 | 1.6 | 3.2 | 0.00 | 0.00 | 0.00 | 78 | 1021.1 |
| 20260906120137 | 16 | 191 | 3.2 | 3.2 | 0.00 | 0.00 | 0.00 | 77 | 1021.3 |
| 20260906115637 | 16 | 243 | 0.0 | 3.2 | 0.00 | 0.00 | 0.00 | 78 | 1021.4 |
| 20260906115132 | 16 | 188 | 0.0 | 3.2 | 0.00 | 0.00 | 0.00 | 78 | 1021.4 |
| 20260906114631 | 16 | 225 | 3.2 | 3.2 | 0.00 | 0.00 | 0.00 | 78 | 1021.1 |
| 20260906114126 | 16 | 195 | 1.6 | 1.6 | 0.00 | 0.00 | 0.00 | 78 | 1021.6 |
| 20260906113620 | 16 | 142 | 0.0 | 3.2 | 0.00 | 0.00 | 0.00 | 78 | 1021.1 |
| 20260906113115 | 17 | 206 | 1.6 | 1.6 | 0.00 | 0.00 | 0.00 | 78 | 1020.8 |
| 20260906112614 | 17 | 255 | 0.0 | 3.2 | 0.00 | 0.00 | 0.00 | 77 | 1021.3 |
| 20260906112111 | 17 | 8 | 0.0 | 3.2 | 0.00 | 0.00 | 0.00 | 77 | 1021.5 |
| 20260906111610 | 17 | 0 | 0.0 | 3.2 | 0.00 | 0.00 | 0.00 | 76 | 1021.3 |
| 20260906111106 | 17 | 14 | 0.0 | 4.8 | 0.00 | 0.00 | 0.00 | 75 | 1020.9 |
| 20260906110606 | 17 | 0 | 0.0 | 4.8 | 0.00 | 0.00 | 0.00 | 74 | 1020.9 |
| 20260906110100 | 17 | 352 | 0.0 | 6.4 | 0.00 | 0.00 | 0.00 | 73 | 1020.9 |
| 20260906105555 | 17 | 0 | 9.7 | 9.7 | 0.00 | 0.00 | 0.00 | 72 | 1021.0 |
| 20260906105051 | 17 | 343 | 6.4 | 8.0 | 0.00 | 0.00 | 0.00 | 70 | 1021.1 |
| 20260906104549 | 17 | 320 | 3.2 | 8.0 | 0.00 | 0.00 | 0.00 | 67 | 1020.9 |
| 20260906104044 | 17 | 0 | 3.2 | 4.8 | 0.00 | 0.00 | 0.00 | 64 | 1021.4 |
| 20260906103542 | 18 | 6 | 4.8 | 8.0 | 0.00 | 0.00 | 0.00 | 63 | 1021.0 |
| 20260906103038 | 18 | 6 | 1.6 | 6.4 | 0.00 | 0.00 | 0.00 | 61 | 1020.9 |
| 20260906102537 | 18 | 356 | 0.0 | 4.8 | 0.00 | 0.00 | 0.00 | 61 | 1020.7 |
| 20260906102033 | 18 | 356 | 3.2 | 6.4 | 0.00 | 0.00 | 0.00 | 61 | 1020.8 |
| 20260906101527 | 18 | 352 | 0.0 | 4.8 | 0.00 | 0.00 | 0.00 | 61 | 1020.7 |
| 20260906101022 | 18 | 286 | 1.6 | 3.2 | 0.00 | 0.00 | 0.00 | 61 | 1020.7 |
| 20260906100518 | 18 | 264 | 0.0 | 0.0 | 0.00 | 0.00 | 0.00 | 60 | 1020.8 |
| 20260906100012 | 18 | 352 | 0.0 | 0.0 | 0.00 | 0.00 | 0.00 | 61 | 1020.8 |
| 20260906095507 | 18 | 73 | 3.2 | 3.2 | 0.00 | 0.00 | 0.00 | 61 | 1020.9 |
| 20260906095003 | 18 | 261 | 0.0 | 0.0 | 0.00 | 0.00 | 0.00 | 60 | 1021.0 |
| 20260906094501 | 18 | 172 | 0.0 | 0.0 | 0.00 | 0.00 | 0.00 | 59 | 1021.0 |
| 20260906093957 | 18 | 240 | 0.0 | 1.6 | 0.00 | 0.00 | 0.00 | 60 | 1020.7 |
| 20260906093454 | 18 | 0 | 0.0 | 1.6 | 0.00 | 0.00 | 0.00 | 60 | 1021.0 |
| 20260906092954 | 18 | 246 | 0.0 | 3.2 | 0.00 | 0.00 | 0.00 | 59 | 1020.8 |
| 20260906092454 | 18 | 144 | 0.0 | 3.2 | 0.00 | 0.00 | 0.00 | 57 | 1020.8 |
| 20260906091949 | 19 | 203 | 0.0 | 1.6 | 0.00 | 0.00 | 0.00 | 57 | 1020.7 |
| 20260906091445 | 20 | 234 | 0.0 | 1.6 | 0.00 | 0.00 | 0.00 | 56 | 1020.8 |
| 20260906090941 | 20 | 337 | 1.6 | 3.2 | 0.00 | 0.00 | 0.00 | 55 | 1020.6 |
| 20260906090436 | 19 | 311 | 0.0 | 3.2 | 0.00 | 0.00 | 0.00 | 57 | 1020.7 |
| 20260906085930 | 19 | 200 | 0.0 | 0.0 | 0.00 | 0.00 | 0.00 | 58 | 1020.7 |
| 20260906085429 | 20 | 57 | 3.2 | 3.2 | 0.00 | 0.00 | 0.00 | 57 | 1020.2 |
| 20260906084928 | 20 | 200 | 0.0 | 3.2 | 0.00 | 0.00 | 0.00 | 57 | 1020.2 |
| 20260906084424 | 20 | 98 | 1.6 | 3.2 | 0.00 | 0.00 | 0.00 | 56 | 1020.3 |
| 20260906083923 | 20 | 0 | 0.0 | 0.0 | 0.00 | 0.00 | 0.00 | 56 | 1020.6 |
| 20260906083418 | 20 | 14 | 0.0 | 3.2 | 0.00 | 0.00 | 0.00 | 56 | 1020.7 |
| 20260906082917 | 20 | 15 | 0.0 | 3.2 | 0.00 | 0.00 | 0.00 | 52 | 1020.3 |
| 20260906082413 | 21 | 126 | 1.6 | 3.2 | 0.00 | 0.00 | 0.00 | 50 | 1020.1 |
| 20260906081909 | 21 | 180 | 0.0 | 1.6 | 0.00 | 0.00 | 0.00 | 49 | 1020.3 |
| 20260906081404 | 21 | 90 | 0.0 | 3.2 | 0.00 | 0.00 | 0.00 | 49 | 1020.2 |
| 20260906080900 | 22 | 197 | 3.2 | 8.0 | 0.00 | 0.00 | 0.00 | 48 | 1020.1 |
| 20260906080357 | 22 | 254 | 0.0 | 6.4 | 0.00 | 0.00 | 0.00 | 47 | 1019.8 |
| 20260906075855 | 22 | 239 | 8.0 | 14.5 | 0.00 | 0.00 | 0.00 | 47 | 1020.2 |
| 20260906075351 | 22 | 273 | 4.8 | 11.3 | 0.00 | 0.00 | 0.00 | 47 | 1020.3 |
| 20260906074846 | 22 | 239 | 4.8 | 4.8 | 0.00 | 0.00 | 0.00 | 47 | 1020.4 |
| 20260906074346 | 22 | 214 | 4.8 | 8.0 | 0.00 | 0.00 | 0.00 | 47 | 1020.3 |
| 20260906073844 | 22 | 229 | 3.2 | 8.0 | 0.00 | 0.00 | 0.00 | 47 | 1020.3 |
| 20260906073339 | 22 | 255 | 4.8 | 9.7 | 0.00 | 0.00 | 0.00 | 46 | 1020.1 |
| 20260906072836 | 22 | 240 | 12.9 | 14.5 | 0.00 | 0.00 | 0.00 | 47 | 1020.0 |
| 20260906072332 | 22 | 258 | 9.7 | 9.7 | 0.00 | 0.00 | 0.00 | 48 | 1020.2 |
| 20260906071827 | 22 | 238 | 4.8 | 8.0 | 0.00 | 0.00 | 0.00 | 49 | 1020.2 |
| 20260906071322 | 22 | 300 | 0.0 | 14.5 | 0.00 | 0.00 | 0.00 | 49 | 1020.2 |
| 20260906070818 | 22 | 291 | 8.0 | 20.9 | 0.00 | 0.00 | 0.00 | 49 | 1020.6 |
| 20260906070313 | 22 | 227 | 4.8 | 4.8 | 0.00 | 0.00 | 0.00 | 50 | 1020.3 |
| 20260906065808 | 22 | 357 | 8.0 | 9.7 | 0.00 | 0.00 | 0.00 | 49 | 1020.2 |
| 20260906065305 | 22 | 0 | 3.2 | 8.0 | 0.00 | 0.00 | 0.00 | 49 | 1020.7 |
| 20260906064759 | 22 | 77 | 1.6 | 6.4 | 0.00 | 0.00 | 0.00 | 48 | 1020.2 |
| 20260906064255 | 22 | 15 | 0.0 | 4.8 | 0.00 | 0.00 | 0.00 | 48 | 1020.3 |
| 20260906063749 | 22 | 229 | 4.8 | 9.7 | 0.00 | 0.00 | 0.00 | 48 | 1020.4 |
| 20260906063245 | 22 | 148 | 0.0 | 3.2 | 0.00 | 0.00 | 0.00 | 49 | 1020.7 |
| 20260906062740 | 22 | 11 | 9.7 | 9.7 | 0.00 | 0.00 | 0.00 | 49 | 1020.6 |
| 20260906062239 | 22 | 29 | 0.0 | 3.2 | 0.00 | 0.00 | 0.00 | 50 | 1020.6 |
| 20260906061735 | 22 | 220 | 3.2 | 4.8 | 0.00 | 0.00 | 0.00 | 48 | 1020.4 |
| 20260906061231 | 22 | 112 | 0.0 | 3.2 | 0.00 | 0.00 | 0.00 | 50 | 1020.6 |
| 20260906060726 | 22 | 223 | 6.4 | 6.4 | 0.00 | 0.00 | 0.00 | 49 | 1020.6 |
| 20260906060224 | 22 | 243 | 1.6 | 6.4 | 0.00 | 0.00 | 0.00 | 49 | 1020.8 |
| 20260906055719 | 22 | 0 | 0.0 | 4.8 | 0.00 | 0.00 | 0.00 | 50 | 1020.7 |
| 20260906055214 | 22 | 191 | 4.8 | 12.9 | 0.00 | 0.00 | 0.00 | 50 | 1020.7 |
| 20260906054709 | 22 | 194 | 6.4 | 8.0 | 0.00 | 0.00 | 0.00 | 52 | 1020.8 |
| 20260906054204 | 22 | 195 | 0.0 | 8.0 | 0.00 | 0.00 | 0.00 | 54 | 1020.8 |
| 20260906053701 | 22 | 246 | 4.8 | 12.9 | 0.00 | 0.00 | 0.00 | 53 | 1021.0 |
| 20260906053156 | 22 | 190 | 4.8 | 8.0 | 0.00 | 0.00 | 0.00 | 53 | 1020.8 |
| 20260906052651 | 23 | 215 | 1.6 | 17.7 | 0.00 | 0.00 | 0.00 | 51 | 1021.0 |
| 20260906052148 | 23 | 257 | 3.2 | 11.3 | 0.00 | 0.00 | 0.00 | 49 | 1021.0 |
| 20260906051644 | 24 | 254 | 0.0 | 6.4 | 0.00 | 0.00 | 0.00 | 45 | 1021.3 |
| 20260906051143 | 24 | 263 | 4.8 | 6.4 | 0.00 | 0.00 | 0.00 | 44 | 1021.1 |
| 20260906050639 | 25 | 270 | 0.0 | 3.2 | 0.00 | 0.00 | 0.00 | 43 | 1021.6 |
| 20260906050134 | 25 | 270 | 3.2 | 3.2 | 0.00 | 0.00 | 0.00 | 43 | 1021.4 |
| 20260906045632 | 25 | 187 | 1.6 | 8.0 | 0.00 | 0.00 | 0.00 | 43 | 1021.4 |
| 20260906045128 | 25 | 247 | 3.2 | 9.7 | 0.00 | 0.00 | 0.00 | 42 | 1021.6 |
| 20260906044624 | 25 | 191 | 6.4 | 14.5 | 0.00 | 0.00 | 0.00 | 41 | 1021.4 |
| 20260906044119 | 25 | 189 | 8.0 | 19.3 | 0.00 | 0.00 | 0.00 | 39 | 1021.5 |
| 20260906043615 | 26 | 180 | 3.2 | 14.5 | 0.00 | 0.00 | 0.00 | 39 | 1021.3 |
| 20260906043110 | 26 | 165 | 6.4 | 12.9 | 0.00 | 0.00 | 0.00 | 38 | 1021.3 |
| 20260906042609 | 26 | 193 | 4.8 | 17.7 | 0.00 | 0.00 | 0.00 | 39 | 1021.1 |
| 20260906042104 | 26 | 180 | 4.8 | 14.5 | 0.00 | 0.00 | 0.00 | 38 | 1020.7 |
| 20260906041600 | 25 | 225 | 6.4 | 8.0 | 0.00 | 0.00 | 0.00 | 38 | 1020.3 |
| 20260906041055 | 25 | 285 | 0.0 | 6.4 | 0.00 | 0.00 | 0.00 | 39 | 1020.2 |
| 20260906040550 | 24 | 261 | 0.0 | 6.4 | 0.00 | 0.00 | 0.00 | 40 | 1020.2 |
| 20260906040046 | 23 | 270 | 0.0 | 3.2 | 0.00 | 0.00 | 0.00 | 42 | 1020.4 |
| 20260906035541 | 23 | 78 | 3.2 | 4.8 | 0.00 | 0.00 | 0.00 | 42 | 1020.1 |
| 20260906035037 | 23 | 270 | 1.6 | 3.2 | 0.00 | 0.00 | 0.00 | 43 | 1020.2 |
| 20260906034536 | 23 | 0 | 1.6 | 1.6 | 0.00 | 0.00 | 0.00 | 42 | 1020.0 |
| 20260906034031 | 24 | 120 | 0.0 | 3.2 | 0.00 | 0.00 | 0.00 | 41 | 1019.8 |
| 20260906033526 | 25 | 80 | 4.8 | 4.8 | 0.00 | 0.00 | 0.00 | 39 | 1019.5 |
| 20260906033022 | 25 | 237 | 3.2 | 4.8 | 0.00 | 0.00 | 0.00 | 39 | 1019.8 |
| 20260906032519 | 25 | 110 | 3.2 | 3.2 | 0.00 | 0.00 | 0.00 | 39 | 1019.8 |
| 20260906032018 | 25 | 231 | 4.8 | 4.8 | 0.00 | 0.00 | 0.00 | 37 | 1019.6 |
| 20260906031514 | 25 | 159 | 3.2 | 8.0 | 0.00 | 0.00 | 0.00 | 36 | 1019.8 |
| 20260906031003 | 25 | 143 | 3.2 | 4.8 | 0.00 | 0.00 | 0.00 | 36 | 1019.6 |
| 20260906030458 | 25 | 232 | 9.7 | 9.7 | 0.00 | 0.00 | 0.00 | 36 | 1019.6 |
| 20260906025957 | 25 | 180 | 3.2 | 4.8 | 0.00 | 0.00 | 0.00 | 37 | 1019.7 |
| 20260906025457 | 25 | 228 | 3.2 | 4.8 | 0.00 | 0.00 | 0.00 | 37 | 1019.3 |
| 20260906024955 | 25 | 270 | 1.6 | 3.2 | 0.00 | 0.00 | 0.00 | 38 | 1019.1 |
| 20260906024450 | 25 | 236 | 3.2 | 4.8 | 0.00 | 0.00 | 0.00 | 38 | 1019.1 |
| 20260906023945 | 25 | 240 | 0.0 | 1.6 | 0.00 | 0.00 | 0.00 | 38 | 1019.0 |
| 20260906023441 | 25 | 151 | 0.0 | 3.2 | 0.00 | 0.00 | 0.00 | 36 | 1018.8 |
| 20260906022936 | 25 | 140 | 0.0 | 3.2 | 0.00 | 0.00 | 0.00 | 36 | 1018.9 |
| 20260906022431 | 26 | 172 | 0.0 | 3.2 | 0.00 | 0.00 | 0.00 | 35 | 1018.9 |
| 20260906021926 | 25 | 180 | 0.0 | 0.0 | 0.00 | 0.00 | 0.00 | 35 | 1019.0 |
| 20260906021426 | 26 | 157 | 0.0 | 1.6 | 0.00 | 0.00 | 0.00 | 35 | 1018.8 |
| 20260906020920 | 26 | 187 | 0.0 | 0.0 | 0.00 | 0.00 | 0.00 | 34 | 1018.8 |
| 20260906020415 | 26 | 187 | 0.0 | 1.6 | 0.00 | 0.00 | 0.00 | 33 | 1018.9 |
| 20260906015909 | 26 | 114 | 0.0 | 0.0 | 0.00 | 0.00 | 0.00 | 33 | 1018.8 |
| 20260906015409 | 27 | 270 | 0.0 | 0.0 | 0.00 | 0.00 | 0.00 | 33 | 1018.8 |
| 20260906014908 | 27 | 239 | 3.2 | 3.2 | 0.00 | 0.00 | 0.00 | 33 | 1018.9 |
| 20260906014403 | 27 | 262 | 0.0 | 6.4 | 0.00 | 0.00 | 0.00 | 33 | 1018.8 |
| 20260906013859 | 27 | 228 | 3.2 | 4.8 | 0.00 | 0.00 | 0.00 | 34 | 1018.9 |
| 20260906013355 | 27 | 180 | 0.0 | 3.2 | 0.00 | 0.00 | 0.00 | 35 | 1018.8 |
| 20260906012850 | 27 | 221 | 3.2 | 4.8 | 0.00 | 0.00 | 0.00 | 35 | 1018.4 |
| 20260906012344 | 27 | 246 | 1.6 | 1.6 | 0.00 | 0.00 | 0.00 | 35 | 1018.5 |
| 20260906011844 | 27 | 234 | 0.0 | 3.2 | 0.00 | 0.00 | 0.00 | 34 | 1018.8 |
| 20260906011339 | 27 | 270 | 0.0 | 0.0 | 0.00 | 0.00 | 0.00 | 34 | 1018.4 |
| 20260906010835 | 27 | 270 | 0.0 | 4.8 | 0.00 | 0.00 | 0.00 | 33 | 1018.7 |
| 20260906010331 | 28 | 286 | 0.0 | 4.8 | 0.00 | 0.00 | 0.00 | 33 | 1018.5 |
| 20260906005826 | 28 | 270 | 0.0 | 3.2 | 0.00 | 0.00 | 0.00 | 32 | 1018.7 |
| 20260906005325 | 28 | 297 | 0.0 | 4.8 | 0.00 | 0.00 | 0.00 | 32 | 1018.7 |
| 20260906004824 | 28 | 259 | 0.0 | 3.2 | 0.00 | 0.00 | 0.00 | 32 | 1018.4 |
| 20260906004324 | 29 | 249 | 0.0 | 3.2 | 0.00 | 0.00 | 0.00 | 32 | 1018.8 |
| 20260906003819 | 29 | 0 | 0.0 | 4.8 | 0.00 | 0.00 | 0.00 | 31 | 1018.5 |
| 20260906003315 | 29 | 261 | 0.0 | 0.0 | 0.00 | 0.00 | 0.00 | 31 | 1018.4 |
| 20260906002810 | 30 | 237 | 0.0 | 0.0 | 0.00 | 0.00 | 0.00 | 32 | 1018.4 |
| 20260906002309 | 30 | 234 | 0.0 | 1.6 | 0.00 | 0.00 | 0.00 | 31 | 1018.7 |
| 20260906001805 | 30 | 337 | 0.0 | 3.2 | 0.00 | 0.00 | 0.00 | 29 | 1018.3 |
| 20260906001301 | 30 | 23 | 0.0 | 3.2 | 0.00 | 0.00 | 0.00 | 29 | 1018.5 |
| 20260906000756 | 30 | 279 | 0.0 | 1.6 | 0.00 | 0.00 | 0.00 | 29 | 1018.3 |
| 20260906000256 | 30 | 180 | 0.0 | 0.0 | 0.00 | 0.00 | 0.00 | 29 | 1018.4 |
| 20260905235751 | 30 | 279 | 0.0 | 3.2 | 0.00 | 0.00 | 0.00 | 29 | 1018.3 |
| 20260905235250 | 30 | 90 | 0.0 | 3.2 | 0.00 | 0.00 | 0.00 | 29 | 1018.4 |
| 20260905234746 | 31 | 180 | 0.0 | 4.8 | 0.00 | 0.00 | 0.00 | 28 | 1018.5 |
| 20260905234241 | 31 | 26 | 3.2 | 6.4 | 0.00 | 0.00 | 0.00 | 27 | 1018.2 |
| 20260905233736 | 31 | 23 | 4.8 | 9.7 | 0.00 | 0.00 | 0.00 | 26 | 1018.5 |
| 20260905233236 | 32 | 5 | 3.2 | 8.0 | 0.00 | 0.00 | 0.00 | 26 | 1018.3 |
| 20260905232730 | 33 | 84 | 3.2 | 6.4 | 0.00 | 0.00 | 0.00 | 27 | 1018.3 |
| 20260905232226 | 32 | 102 | 6.4 | 14.5 | 0.00 | 0.00 | 0.00 | 26 | 1018.1 |
| 20260905231722 | 32 | 81 | 3.2 | 8.0 | 0.00 | 0.00 | 0.00 | 26 | 1018.2 |
| 20260905231217 | 33 | 131 | 3.2 | 4.8 | 0.00 | 0.00 | 0.00 | 26 | 1018.0 |
| 20260905230713 | 32 | 356 | 3.2 | 6.4 | 0.00 | 0.00 | 0.00 | 25 | 1018.2 |
| 20260905230211 | 33 | 114 | 0.0 | 8.0 | 0.00 | 0.00 | 0.00 | 25 | 1018.2 |
| 20260905225710 | 34 | 135 | 3.2 | 8.0 | 0.00 | 0.00 | 0.00 | 24 | 1018.0 |